• In Österreich
  • Länderverzeichnis
  • Für 7 Tage
  • Wassertemperatur
  • Satellitenkarten
  • Wetterkarte
  • News
  • Widgets
  • user-avatar
    Anmelden

    Stündliche Wetter Granica

    Heute, 19 September, Mittwoch

    Zeit Temperatur Niederschläge Wind Luftdruck Luftfeuchtigkeit
    00:00 +19°C° 0 mm 3 m/S 754 mmHg 70%
    01:00 +18°C° 0 mm 3 m/S 754 mmHg 71%
    02:00 +18°C° 0 mm 3 m/S 754 mmHg 71%
    03:00 +18°C° 0 mm 3 m/S 754 mmHg 70%
    04:00 +17°C° 0 mm 3 m/S 754 mmHg 70%
    05:00 +18°C° 0 mm 3 m/S 754 mmHg 67%
    06:00 +19°C° 0 mm 3 m/S 754 mmHg 65%
    07:00 +19°C° 0 mm 3 m/S 755 mmHg 61%
    08:00 +21°C° 0 mm 3 m/S 755 mmHg 56%
    09:00 +23°C° 0 mm 4 m/S 755 mmHg 51%
    10:00 +26°C° 0 mm 4 m/S 755 mmHg 46%
    11:00 +27°C° 0 mm 4 m/S 755 mmHg 44%
    12:00 +28°C° 0 mm 4 m/S 755 mmHg 41%
    13:00 +29°C° 0 mm 4 m/S 755 mmHg 39%
    14:00 +29°C° 0 mm 4 m/S 754 mmHg 40%
    15:00 +29°C° 0 mm 3 m/S 754 mmHg 42%
    16:00 +28°C° 0 mm 3 m/S 754 mmHg 44%
    17:00 +27°C° 0 mm 2 m/S 754 mmHg 49%
    18:00 +25°C° 0 mm 2 m/S 754 mmHg 54%
    19:00 +23°C° 0 mm 2 m/S 755 mmHg 58%
    20:00 +21°C° 0 mm 2 m/S 755 mmHg 60%
    21:00 +21°C° 0 mm 2 m/S 755 mmHg 62%
    22:00 +20°C° 0 mm 2 m/S 755 mmHg 64%
    23:00 +20°C° 0 mm 2 m/S 755 mmHg 66%

    Morgen, 20 September, Donnerstag

    Zeit Temperatur Niederschläge Wind Luftdruck Luftfeuchtigkeit
    00:00 +19°C° 0 mm 2 m/S 755 mmHg 69%
    01:00 +19°C° 0 mm 2 m/S 755 mmHg 71%
    02:00 +19°C° 0 mm 2 m/S 755 mmHg 73%
    03:00 +18°C° 0 mm 2 m/S 755 mmHg 75%
    04:00 +18°C° 0 mm 2 m/S 755 mmHg 77%
    05:00 +19°C° 0 mm 2 m/S 755 mmHg 75%
    06:00 +19°C° 0 mm 2 m/S 756 mmHg 74%
    07:00 +20°C° 0 mm 2 m/S 756 mmHg 72%
    08:00 +23°C° 0 mm 2 m/S 756 mmHg 66%
    09:00 +25°C° 0 mm 2 m/S 756 mmHg 59%
    10:00 +27°C° 0 mm 2 m/S 756 mmHg 53%
    11:00 +28°C° 0 mm 2 m/S 756 mmHg 50%
    12:00 +29°C° 0 mm 2 m/S 755 mmHg 46%
    13:00 +30°C° 0 mm 2 m/S 755 mmHg 43%
    14:00 +30°C° 0 mm 2 m/S 755 mmHg 44%
    15:00 +30°C° 0 mm 2 m/S 755 mmHg 45%
    16:00 +29°C° 0 mm 2 m/S 754 mmHg 45%
    17:00 +27°C° 0 mm 2 m/S 754 mmHg 50%
    18:00 +26°C° 0 mm 2 m/S 755 mmHg 55%
    19:00 +24°C° 0 mm 2 m/S 755 mmHg 59%
    20:00 +23°C° 0 mm 2 m/S 755 mmHg 61%
    21:00 +21°C° 0 mm 2 m/S 755 mmHg 62%
    22:00 +21°C° 0 mm 2 m/S 755 mmHg 63%
    23:00 +20°C° 0 mm 2 m/S 755 mmHg 63%

    übermorgen, 21 September, Freitag

    Zeit Temperatur Niederschläge Wind Luftdruck Luftfeuchtigkeit
    00:00 +20°C° 0 mm 2 m/S 754 mmHg 63%
    01:00 +19°C° 0 mm 2 m/S 754 mmHg 63%
    02:00 +19°C° 0 mm 3 m/S 754 mmHg 63%
    03:00 +18°C° 0 mm 3 m/S 754 mmHg 63%
    04:00 +18°C° 0 mm 3 m/S 754 mmHg 64%
    05:00 +18°C° 0 mm 3 m/S 754 mmHg 63%
    06:00 +19°C° 0 mm 3 m/S 754 mmHg 63%
    07:00 +19°C° 0 mm 3 m/S 754 mmHg 62%
    08:00 +21°C° 0 mm 4 m/S 753 mmHg 57%
    09:00 +23°C° 0 mm 4 m/S 753 mmHg 52%
    10:00 +26°C° 0 mm 5 m/S 753 mmHg 47%
    11:00 +27°C° 0 mm 5 m/S 752 mmHg 43%
    12:00 +28°C° 0 mm 5 m/S 751 mmHg 40%
    13:00 +29°C° 0 mm 6 m/S 751 mmHg 37%
    14:00 +29°C° 0 mm 5 m/S 750 mmHg 38%
    15:00 +28°C° 0 mm 5 m/S 750 mmHg 40%
    16:00 +28°C° 0 mm 4 m/S 749 mmHg 41%
    17:00 +27°C° 0 mm 5 m/S 749 mmHg 44%
    18:00 +25°C° 0 mm 5 m/S 749 mmHg 47%
    19:00 +23°C° 0 mm 5 m/S 748 mmHg 50%
    20:00 +23°C° 0 mm 5 m/S 748 mmHg 49%
    21:00 +23°C° 0 mm 6 m/S 749 mmHg 48%
    22:00 +23°C° 0 mm 6 m/S 749 mmHg 47%
    23:00 +22°C° 0 mm 6 m/S 749 mmHg 54%

    22 September, Samstag

    Zeit Temperatur Niederschläge Wind Luftdruck Luftfeuchtigkeit
    00:00 +21°C° 0 mm 6 m/S 749 mmHg 60%
    01:00 +20°C° 0 mm 5 m/S 750 mmHg 67%
    02:00 +19°C° 0 mm 5 m/S 750 mmHg 66%
    03:00 +17°C° 0 mm 5 m/S 751 mmHg 66%
    04:00 +16°C° 0 mm 5 m/S 752 mmHg 66%
    05:00 +15°C° 0.3 mm 5 m/S 752 mmHg 68%
    06:00 +14°C° 0.3 mm 4 m/S 753 mmHg 71%
    07:00 +13°C° 0.3 mm 4 m/S 753 mmHg 73%
    08:00 +12°C° 0.5 mm 4 m/S 754 mmHg 75%
    09:00 +12°C° 0.5 mm 4 m/S 754 mmHg 78%
    10:00 +12°C° 0.5 mm 4 m/S 754 mmHg 80%
    11:00 +12°C° 0.8 mm 4 m/S 754 mmHg 80%
    12:00 +12°C° 0.8 mm 4 m/S 754 mmHg 80%
    13:00 +12°C° 0.8 mm 5 m/S 754 mmHg 79%
    14:00 +12°C° 0.5 mm 5 m/S 754 mmHg 79%
    15:00 +12°C° 0.5 mm 5 m/S 754 mmHg 78%
    16:00 +12°C° 0.5 mm 5 m/S 754 mmHg 78%
    17:00 +10°C° 0.1 mm 5 m/S 754 mmHg 79%
    18:00 +10°C° 0.1 mm 5 m/S 754 mmHg 80%
    19:00 +11°C° 0.1 mm 4 m/S 754 mmHg 82%
    20:00 +11°C° 0 mm 4 m/S 754 mmHg 81%
    21:00 +10°C° 0 mm 4 m/S 754 mmHg 81%
    22:00 +10°C° 0 mm 4 m/S 754 mmHg 81%
    23:00 +10°C° 0 mm 4 m/S 754 mmHg 80%

    23 September, Sonntag

    Zeit Temperatur Niederschläge Wind Luftdruck Luftfeuchtigkeit
    00:00 +9°C° 0 mm 3 m/S 754 mmHg 80%
    01:00 +9°C° 0 mm 3 m/S 754 mmHg 79%
    02:00 +9°C° 0 mm 3 m/S 754 mmHg 79%
    03:00 +8°C° 0 mm 3 m/S 754 mmHg 80%
    04:00 +8°C° 0 mm 3 m/S 755 mmHg 80%
    05:00 +9°C° 0 mm 3 m/S 755 mmHg 78%
    06:00 +8°C° 0 mm 4 m/S 755 mmHg 76%
    07:00 +10°C° 0 mm 4 m/S 755 mmHg 74%
    08:00 +11°C° 0 mm 4 m/S 755 mmHg 66%
    09:00 +13°C° 0 mm 5 m/S 755 mmHg 58%
    10:00 +15°C° 0 mm 5 m/S 755 mmHg 50%
    11:00 +15°C° 0 mm 5 m/S 754 mmHg 48%
    12:00 +16°C° 0 mm 5 m/S 754 mmHg 45%
    13:00 +17°C° 0 mm 5 m/S 753 mmHg 43%
    14:00 +18°C° 0 mm 4 m/S 752 mmHg 44%
    15:00 +18°C° 0 mm 4 m/S 752 mmHg 45%
    16:00 +18°C° 0 mm 3 m/S 751 mmHg 46%
    17:00 +16°C° 0 mm 3 m/S 751 mmHg 49%
    18:00 +14°C° 0 mm 4 m/S 750 mmHg 52%
    19:00 +13°C° 0 mm 4 m/S 749 mmHg 55%
    20:00 +13°C° 0 mm 5 m/S 748 mmHg 55%
    21:00 +13°C° 0 mm 6 m/S 748 mmHg 55%
    22:00 +14°C° 0 mm 6 m/S 747 mmHg 55%
    23:00 +14°C° 0.1 mm 7 m/S 746 mmHg 56%

    24 September, Montag

    Zeit Temperatur Niederschläge Wind Luftdruck Luftfeuchtigkeit
    00:00 +14°C° 0.1 mm 7 m/S 745 mmHg 58%
    01:00 +14°C° 0.1 mm 7 m/S 744 mmHg 59%
    02:00 +13°C° 2.1 mm 6 m/S 744 mmHg 66%
    03:00 +13°C° 2.1 mm 5 m/S 743 mmHg 72%
    04:00 +12°C° 2.1 mm 4 m/S 743 mmHg 79%
    05:00 +12°C° 0.4 mm 4 m/S 742 mmHg 78%
    06:00 +13°C° 0.4 mm 5 m/S 742 mmHg 78%
    07:00 +13°C° 0.4 mm 5 m/S 741 mmHg 77%
    08:00 +14°C° 0.1 mm 5 m/S 741 mmHg 78%
    09:00 +14°C° 0.1 mm 5 m/S 741 mmHg 79%
    10:00 +15°C° 0.1 mm 5 m/S 741 mmHg 80%
    11:00 +14°C° 0.1 mm 5 m/S 741 mmHg 77%
    12:00 +14°C° 0.1 mm 5 m/S 741 mmHg 75%
    13:00 +14°C° 0.1 mm 5 m/S 742 mmHg 72%
    14:00 +14°C° 0.1 mm 5 m/S 742 mmHg 72%
    15:00 +14°C° 0.1 mm 5 m/S 742 mmHg 72%
    16:00 +14°C° 0.1 mm 5 m/S 742 mmHg 71%
    17:00 +13°C° 0 mm 5 m/S 742 mmHg 73%
    18:00 +13°C° 0 mm 5 m/S 742 mmHg 74%
    19:00 +13°C° 0 mm 5 m/S 743 mmHg 76%
    20:00 +11°C° 0.1 mm 6 m/S 743 mmHg 75%
    21:00 +11°C° 0.1 mm 7 m/S 744 mmHg 74%
    22:00 +10°C° 0.1 mm 7 m/S 744 mmHg 73%
    23:00 +10°C° 0 mm 7 m/S 744 mmHg 72%
    Mehr zeigen